{"data":{"norad_id":55963,"intl_designator":"2023-037BB","name":"STARLINK-5924","alt_names":[],"object_type":"PAYLOAD","status":"ACTIVE","operator":null,"country":"US","launch_date":"2023-03-17","launch_site_code":"AFWTR","launch_vehicle":null,"mission":null,"orbit_class":"UNKNOWN","rcs_meters":null,"size_class":null,"mass_kg":null,"dimensions":null,"purposes":["comms"],"wikipedia_slug":null,"has_3d_model":false,"image_url":null,"decayed_at":null,"tle_current":{"epoch":"2026-09-20T08:36:19.829376Z","epoch_age_seconds":118448,"freshness":"FRESH","line1":"1 55963U 23037BB  26263.35856284  .00001157  00000+0  10478-3 0  9999","line2":"2 55963  70.0029 133.5923 0002720 281.6830  78.4024 14.98324586193630","mean_motion":14.98324586,"eccentricity":0.000272,"inclination_deg":70.0029,"raan_deg":133.5923,"arg_perigee_deg":281.683,"mean_anomaly_deg":78.4024,"bstar":0.00010478,"rev_number":19363,"period_min":96.10734639577,"perigee_km":570.18217632296,"apogee_km":573.9630903635,"semimajor_km":6950.2096333432,"source":"CELESTRAK","updated_at":"2026-09-21T09:00:33.348445Z"}}}